DW4678 Fairhaven MA US current weather conditions

sailwx.info

Wind from 276 at 14 knots

Air temperature 2.8° C
Dewpoint 0.2° C

Last reported at 2020-Jan-27 11:01 UTC.
Time now 2020-Jan-27 11:58 UTC

Location: N 41°35' W 070°50'.
View on Google Maps.

See reports from other nearby stations

  
Tides and Currents Weather Stations Pressure Air Temp Water Temp Dewpoint Dewpoint Depression Visibility Wind Speed Wind Dir Waves Ship Positions
date/time (UTC)wind fromknots sea level pressurealtimeterstation pressurevisibilityair tempwater tempwave heightnotes
2020-Jan-27 11:01 276 14 2.8
2020-Jan-27 10:46 263 15 2.8
2020-Jan-27 10:30 262 14 3.3
2020-Jan-27 10:15 264 13 3.3
2020-Jan-27 10:00 267 13 3.3
2020-Jan-27 09:45 267 14 3.3
2020-Jan-27 09:30 256 13 3.3
2020-Jan-27 08:47 262 7 2.8
2020-Jan-27 08:31 262 4 2.8
2020-Jan-27 08:16 279 3 2.8
2020-Jan-27 08:01 283 4 2.8
2020-Jan-27 07:46 279 5 2.8
2020-Jan-27 07:30 272 6 3.3
2020-Jan-27 07:02 273 6 3.3
2020-Jan-27 06:46 272 7 3.3
2020-Jan-27 06:33 270 6 3.3
2020-Jan-27 06:16 285 7 3.3
2020-Jan-27 06:01 279 7 3.9
2020-Jan-27 05:45 282 9 3.9
2020-Jan-27 05:30 283 9 3.9
2020-Jan-27 05:17 279 12 3.9
2020-Jan-27 05:01 282 11 3.9
2020-Jan-27 04:48 280 13 3.9
2020-Jan-27 04:30 267 13 4.4
2020-Jan-27 04:15 278 13 3.9
2020-Jan-27 04:03 275 11 3.9
2020-Jan-27 03:46 276 12 3.9
2020-Jan-27 03:30 279 13 3.9
2020-Jan-27 03:15 280 12 3.9
2020-Jan-27 02:47 283 12 3.9
2020-Jan-27 02:30 279 12 3.9
2020-Jan-27 02:15 275 8 3.9
2020-Jan-27 02:00 271 6 3.9
2020-Jan-27 01:31 262 7 3.9
2020-Jan-27 01:16 264 7 3.9
2020-Jan-27 01:00 280 6 4.4
2020-Jan-27 00:45 289 6 4.4
2020-Jan-27 00:16 274 7 4.4
2020-Jan-27 00:02 272 8 4.4
2020-Jan-26 23:45 268 7 4.4
2020-Jan-26 23:31 266 6 5.0
2020-Jan-26 23:15 279 6 5.0
2020-Jan-26 22:47 283 9 5.0
2020-Jan-26 22:31 279 12 5.0
2020-Jan-26 22:15 270 11 5.0
2020-Jan-26 21:47 254 17 4.4
2020-Jan-26 21:33 258 19 5.0
2020-Jan-26 21:15 253 19 5.0
2020-Jan-26 21:00 247 20 5.0
2020-Jan-26 20:31 251 19 5.0
2020-Jan-26 20:16 256 19 5.0
2020-Jan-26 20:02 251 19 5.0
2020-Jan-26 19:46 253 19 5.0
2020-Jan-26 19:30 250 19 5.0
2020-Jan-26 19:15 247 20 5.0
2020-Jan-26 19:00 252 20 5.0
2020-Jan-26 18:45 249 20 5.0
2020-Jan-26 18:17 247 21 5.0
2020-Jan-26 18:01 239 20 5.0
2020-Jan-26 17:46 244 18 5.0
2020-Jan-26 17:31 253 12 5.6
2020-Jan-26 17:16 275 11 6.7
2020-Jan-26 17:00 281 13 6.7
2020-Jan-26 16:31 290 11 6.1
2020-Jan-26 16:16
2020-Jan-26 16:01 291 14 5.6
2020-Jan-26 15:45 278 15 5.0
2020-Jan-26 15:30 286 14 5.0
2020-Jan-26 15:15 285 15 5.0
2020-Jan-26 15:00 287 14 5.0
2020-Jan-26 14:45 283 13 4.4
2020-Jan-26 14:17 285 12 4.4
2020-Jan-26 14:03 278 12 4.4
2020-Jan-26 13:46 289 14 4.4
2020-Jan-26 13:31 284 15 4.4
2020-Jan-26 13:17 298 13 5.0
2020-Jan-26 13:00 285 13 5.0
2020-Jan-26 12:45 287 13 5.0
2020-Jan-26 12:03 272 10 5.0
2020-Jan-26 11:47 279 10 5.0
2020-Jan-26 11:31 271 12 5.0
2020-Jan-26 11:16 277 12 5.0
2020-Jan-26 11:00 262 11 5.0
2020-Jan-26 10:45 266 8 4.4
2020-Jan-26 10:30 261 11 4.4
2020-Jan-26 10:01 250 11 4.4
2020-Jan-26 09:46 251 11 4.4
2020-Jan-26 09:30 253 13 4.4
2020-Jan-26 09:16 241 13 4.4
2020-Jan-26 08:47 247 15 5.0
2020-Jan-26 08:32 253 16 5.0
2020-Jan-26 08:17 248 15 5.0
2020-Jan-26 08:01 243 13 4.4
2020-Jan-26 07:46 243 11 4.4
2020-Jan-26 07:32 241 9 4.4
2020-Jan-26 06:47 237 9 5.0
2020-Jan-26 06:32 227 9 5.0
2020-Jan-26 06:17 239 11 5.6
2020-Jan-26 06:01 251 11 5.6
2020-Jan-26 05:47 247 11 5.6
2020-Jan-26 05:32 258 13 6.7
2020-Jan-26 05:16 270 12 6.1
2020-Jan-26 05:01 264 11 5.6
2020-Jan-26 04:45 245 9 6.1
2020-Jan-26 04:30 234 14 6.7
2020-Jan-26 04:17 216 13 7.2
2020-Jan-26 04:02 199 16 7.8
2020-Jan-26 03:47 171 18 8.3
2020-Jan-26 03:31 174 17 8.3
2020-Jan-26 03:15 161 15 8.9
2020-Jan-26 03:00 204 18 9.4
2020-Jan-26 02:45 169 21 8.9
2020-Jan-26 02:18 155 19 8.3
2020-Jan-26 02:01 128 20 7.2
2020-Jan-26 01:46 121 22 7.2
2020-Jan-26 01:32 121 20 6.7
2020-Jan-26 01:16 133 23 6.1
2020-Jan-26 01:00 121 24 6.1
2020-Jan-26 00:45 114 23 5.6
2020-Jan-26 00:30 118 26 5.6
2020-Jan-26 00:15 119 24 5.6
2020-Jan-26 00:00 123 24 6.1
2020-Jan-25 23:18 121 24 6.7
2020-Jan-25 23:02 106 18 6.7
2020-Jan-25 22:47 116 15 6.1
2020-Jan-25 22:31 116 17 6.1
2020-Jan-25 22:16 114 19 6.1
2020-Jan-25 22:00 114 20 6.1
2020-Jan-25 21:45 114 23 6.1
2020-Jan-25 21:30 108 23 6.1
2020-Jan-25 21:15 106 19 6.7
2020-Jan-25 21:00 098 15 6.7
2020-Jan-25 20:02 092 15 6.7
2020-Jan-25 19:46 094 14 6.7
2020-Jan-25 19:31 088 14 6.7
2020-Jan-25 19:16 063 13 6.7
2020-Jan-25 19:01 087 13 6.7
2020-Jan-25 18:45 085 15 6.7
2020-Jan-25 18:30 089 13 6.7
2020-Jan-25 18:15 095 13 6.7
2020-Jan-25 17:47 083 13 6.7
2020-Jan-25 17:31 079 13 6.7
2020-Jan-25 17:16 096 13 6.7
2020-Jan-25 17:01 116 11 6.1
2020-Jan-25 16:46 096 10 6.1
2020-Jan-25 16:30 085 10 6.1
2020-Jan-25 16:16 096 9 5.6
2020-Jan-25 16:00 089 11 5.6
2020-Jan-25 15:31 108 13 5.6
2020-Jan-25 15:17 091 13 5.6
2020-Jan-25 15:01 079 13 5.6
2020-Jan-25 14:46 099 12 5.6
2020-Jan-25 14:30 076 12 5.0
2020-Jan-25 14:15 085 13 5.0
2020-Jan-25 14:00 106 11 5.0
2020-Jan-25 13:17 064 9 4.4
2020-Jan-25 13:01 090 10 4.4
2020-Jan-25 12:46 083 9 3.9
2020-Jan-25 12:30 091 10 3.9
2020-Jan-25 12:01 079 7 3.9
2020-Jan-25 11:46 069 7 3.3
2020-Jan-25 11:32 076 7 3.3